DeLand, FL

5:37 AM EST on December 14, 2019 (GMT -0500)
De Land Municipal-Taylor

Weather History for KDED - November, 2019

Change the Weather History Date:

Tuesday, November 19, 2019

  Actual Average Record
Temperature  
Mean Temperature 59 °F -  
Max Temperature 68 °F 78 °F 82 °F (2015)
Min Temperature 48 °F 53 °F 37 °F (2014)
Degree Days  
Heating Degree Days 6    
Growing Degree Days 9 (Base 50)    
Moisture  
Dew Point 46 °F    
Average Humidity 69    
Maximum Humidity 100    
Minimum Humidity 33    
Precipitation  
Precipitation 0.00 in - - ()
Sea Level Pressure  
Sea Level Pressure 29.94 in    
Wind  
Wind Speed 4 mph (West)    
Max Wind Speed 14 mph    
Max Gust Speed 22 mph    
Visibility 9 miles    
Events Fog    
Averages and records for this station are not official NWS values.
T = Trace of Precipitation, MM = Missing Value Source: NWS Daily Summary

Daily Weather History Graph

Daily Weather History Graph

Search for Another Location

Airport or City:

Astronomy

Nov. 19, 2019 Rise Set
Actual Time 6:51 AM EST 5:29 PM EST
Civil Twilight 6:26 AM EST 5:54 PM EST
Nautical Twilight 5:57 AM EST 6:23 PM EST
Astronomical Twilight 5:29 AM EST 6:51 PM EST
Moon No Moon Rise 1:04 PM EST (11/19)
Length of Visible Light 11h 28m
Length of Day
10h 37m
Waning Gibbous, 52% of the Moon is Illuminated
Nov 19
Waning Gibbous
Nov 19
Last Quarter
Nov 26
New
Dec 4
First Quarter
Dec 12
Full

Hourly Weather History & Observations

Time (EST) Temp. Dew Point Humidity Pressure Visibility Wind Dir Wind Speed Gust Speed Precip Events Conditions
12:15 AM 55.4 °F 51.8 °F 88% 29.87 in 10.0 mi West 4.6 mph - N/A   Clear
12:35 AM 55.4 °F 51.8 °F 88% 29.87 in 10.0 mi West 3.5 mph - N/A   Clear
1:15 AM 55.4 °F 51.8 °F 88% 29.87 in 10.0 mi Calm Calm - N/A   Clear
1:55 AM 53.6 °F 51.8 °F 94% 29.87 in 10.0 mi Calm Calm - N/A   Clear
2:15 AM 51.8 °F 50.0 °F 94% 29.87 in 10.0 mi Calm Calm - N/A   Clear
2:35 AM 50.0 °F 48.2 °F 94% 29.87 in 10.0 mi Calm Calm - N/A   Clear
2:55 AM 51.8 °F 50.0 °F 94% 29.86 in 10.0 mi Calm Calm - N/A   Clear
3:15 AM 51.8 °F 51.8 °F 100% 29.86 in 10.0 mi Calm Calm - N/A   Clear
3:35 AM 51.8 °F 51.8 °F 100% 29.87 in 10.0 mi Calm Calm - N/A   Clear
3:55 AM 53.6 °F 53.6 °F 100% 29.87 in 10.0 mi Calm Calm - N/A   Clear
4:15 AM 51.8 °F 51.8 °F 100% 29.86 in 2.0 mi Calm Calm - N/A   Mostly Cloudy
4:35 AM 51.8 °F 51.8 °F 100% 29.87 in 0.5 mi Calm Calm - N/A Fog Fog
4:55 AM 51.8 °F 51.8 °F 100% 29.87 in 1.2 mi SW 5.8 mph - N/A   Overcast
5:15 AM 51.8 °F - N/A% 29.88 in 0.8 mi WSW 3.5 mph - N/A   Overcast
5:35 AM 50.0 °F - N/A% 29.88 in 1.8 mi WSW 3.5 mph - N/A   Overcast
5:55 AM 51.8 °F - N/A% 29.88 in 10.0 mi West 3.5 mph - N/A   Scattered Clouds
6:15 AM 51.8 °F 51.8 °F 100% 29.89 in 10.0 mi West 4.6 mph - N/A   Clear
6:35 AM 51.8 °F 50.0 °F 94% 29.91 in 10.0 mi West 5.8 mph - N/A   Clear
6:55 AM 51.8 °F 50.0 °F 94% 29.92 in 10.0 mi WNW 4.6 mph - N/A   Clear
7:15 AM 50.0 °F 50.0 °F 100% 29.93 in 10.0 mi WNW 5.8 mph - N/A   Clear
7:35 AM 51.8 °F 50.0 °F 94% 29.93 in 10.0 mi WNW 4.6 mph - N/A   Clear
7:55 AM 51.8 °F 48.2 °F 88% 29.94 in 10.0 mi NW 4.6 mph - N/A   Clear
8:15 AM 53.6 °F 48.2 °F 82% 29.93 in 10.0 mi WNW 3.5 mph - N/A   Clear
8:35 AM 55.4 °F 48.2 °F 77% 29.93 in 10.0 mi WNW 4.6 mph - N/A   Clear
8:55 AM 57.2 °F 48.2 °F 72% 29.94 in 10.0 mi WNW 5.8 mph - N/A   Clear
9:15 AM 57.2 °F 46.4 °F 67% 29.95 in 10.0 mi WNW 5.8 mph - N/A   Clear
9:35 AM 59.0 °F 46.4 °F 63% 29.96 in 10.0 mi WNW 6.9 mph - N/A   Clear
9:55 AM 60.8 °F 48.2 °F 63% 29.96 in 10.0 mi WNW 8.1 mph - N/A   Clear
10:15 AM 60.8 °F 48.2 °F 63% 29.96 in 10.0 mi WNW 8.1 mph - N/A   Clear
10:35 AM 62.6 °F 44.6 °F 52% 29.96 in 10.0 mi WNW 8.1 mph - N/A   Clear
10:55 AM 62.6 °F 44.6 °F 52% 29.96 in 10.0 mi West 10.4 mph - N/A   Clear
11:15 AM 64.4 °F 44.6 °F 49% 29.97 in 10.0 mi West 11.5 mph - N/A   Clear
11:35 AM 64.4 °F 44.6 °F 49% 29.96 in 10.0 mi West 11.5 mph 20.7 mph N/A   Clear
11:55 AM 64.4 °F 42.8 °F 45% 29.95 in 10.0 mi West 12.7 mph 17.3 mph N/A   Clear
12:15 PM 66.2 °F 42.8 °F 43% 29.95 in 10.0 mi West 13.8 mph 18.4 mph N/A   Clear
12:35 PM 66.2 °F 42.8 °F 43% 29.94 in 10.0 mi WNW 11.5 mph 18.4 mph N/A   Clear
12:55 PM 68.0 °F 42.8 °F 40% 29.93 in 10.0 mi WNW 11.5 mph 18.4 mph N/A   Clear
1:15 PM 68.0 °F 41.0 °F 37% 29.92 in 10.0 mi West 13.8 mph 19.6 mph N/A   Clear
1:35 PM 68.0 °F 39.2 °F 35% 29.92 in 10.0 mi WNW 12.7 mph 21.9 mph N/A   Clear
1:55 PM 68.0 °F 37.4 °F 33% 29.92 in 10.0 mi West 11.5 mph 17.3 mph N/A   Clear
2:15 PM 68.0 °F 39.2 °F 35% 29.92 in 10.0 mi West 13.8 mph - N/A   Clear
2:35 PM 68.0 °F 37.4 °F 33% 29.92 in 10.0 mi WNW 11.5 mph - N/A   Clear
2:55 PM 68.0 °F 37.4 °F 33% 29.92 in 10.0 mi WNW 10.4 mph - N/A   Clear
3:15 PM 68.0 °F 39.2 °F 35% 29.93 in 10.0 mi West 10.4 mph - N/A   Clear
3:35 PM 68.0 °F 39.2 °F 35% 29.93 in 10.0 mi WNW 9.2 mph - N/A   Clear
3:55 PM 68.0 °F 39.2 °F 35% 29.94 in 10.0 mi West 8.1 mph - N/A   Clear
4:15 PM 68.0 °F 39.2 °F 35% 29.94 in 10.0 mi WNW 6.9 mph - N/A   Clear
4:35 PM 66.2 °F 39.2 °F 37% 29.95 in 10.0 mi WNW 6.9 mph - N/A   Clear
4:55 PM 66.2 °F 41.0 °F 40% 29.95 in 10.0 mi West 4.6 mph - N/A   Clear
5:15 PM 64.4 °F 42.8 °F 45% 29.96 in 10.0 mi Calm Calm - N/A   Clear
5:55 PM 60.8 °F 42.8 °F 52% 29.97 in 10.0 mi Calm Calm - N/A   Clear
6:15 PM 55.4 °F 48.2 °F 77% 29.98 in 10.0 mi Calm Calm - N/A   Clear
6:35 PM 55.4 °F 46.4 °F 72% 29.99 in 10.0 mi Calm Calm - N/A   Clear
6:55 PM 53.6 °F 46.4 °F 77% 29.99 in 10.0 mi Calm Calm - N/A   Clear
7:15 PM 53.6 °F 46.4 °F 77% 30.00 in 10.0 mi Calm Calm - N/A   Clear
7:35 PM 53.6 °F 48.2 °F 82% 30.01 in 10.0 mi Calm Calm - N/A   Clear
7:55 PM 51.8 °F 46.4 °F 82% 30.01 in 10.0 mi Calm Calm - N/A   Clear
8:35 PM 51.8 °F 46.4 °F 82% 30.02 in 10.0 mi Calm Calm - N/A   Clear
8:55 PM 53.6 °F 44.6 °F 72% 30.03 in 10.0 mi WSW 4.6 mph - N/A   Clear
9:15 PM 55.4 °F 42.8 °F 63% 30.03 in 10.0 mi WSW 4.6 mph - N/A   Clear
9:35 PM 53.6 °F 44.6 °F 72% 30.04 in 10.0 mi WSW 3.5 mph - N/A   Clear
9:55 PM 53.6 °F 44.6 °F 72% 30.04 in 10.0 mi Calm Calm - N/A   Clear
10:15 PM 53.6 °F 44.6 °F 72% 30.04 in 10.0 mi WSW 3.5 mph - N/A   Clear
10:35 PM 51.8 °F 44.6 °F 76% 30.04 in 10.0 mi WSW 3.5 mph - N/A   Clear
10:55 PM 51.8 °F 44.6 °F 76% 30.04 in 10.0 mi Calm Calm - N/A   Clear
11:15 PM 50.0 °F 44.6 °F 82% 30.04 in 10.0 mi Calm Calm - N/A   Clear
11:35 PM 50.0 °F 44.6 °F 82% 30.04 in 10.0 mi Calm Calm - N/A   Clear
11:55 PM 48.2 °F 44.6 °F 87% 30.04 in 10.0 mi Calm Calm - N/A   Clear